![]() |
EMODnet Physics ERDDAP
Easier access to scientific data |
log in|
Brought to you by EMODnet Physics |
| Dataset Title: | NDBC - Collection of dew point temperature (DEWT) TimeSeries - IN SITU MultiPointTimeSeriesObservation
|
| Institution: | NDBC (Dataset ID: TS_DEWT_NDBC) |
| Information: | Summary
| License
| FGDC
| ISO 19115
| Metadata
| Background
| Subset
| Data Access Form
| Make a graph
|
| Name | Last modified | Size | Description | |
|---|---|---|---|---|
| Parent Directory | - | - | ||
| 41008_TS_DEWT_011989.nc | 26-Oct-2024 09:36 | 451176 | ||
| 41008_TS_DEWT_011990.nc | 26-Oct-2024 09:36 | 1249450 | ||
| 41008_TS_DEWT_011991.nc | 26-Oct-2024 09:36 | 1261794 | ||
| 41008_TS_DEWT_011992.nc | 26-Oct-2024 09:36 | 1144183 | ||
| 41008_TS_DEWT_011998.nc | 26-Oct-2024 09:36 | 1265287 | ||
| 41008_TS_DEWT_011999.nc | 26-Oct-2024 09:36 | 1267959 | ||
| 41008_TS_DEWT_012000.nc | 26-Oct-2024 09:36 | 1267195 | ||
| 41008_TS_DEWT_012001.nc | 26-Oct-2024 09:36 | 1021014 | ||
| 41008_TS_DEWT_012002.nc | 26-Oct-2024 09:36 | 5300943 | ||
| 41008_TS_DEWT_012003.nc | 26-Oct-2024 09:36 | 5527064 | ||
| 41008_TS_DEWT_012004.nc | 26-Oct-2024 09:36 | 429622 | ||
| 41008_TS_DEWT_012005.nc | 26-Oct-2024 09:36 | 429621 | ||
| 41008_TS_DEWT_012006.nc | 26-Oct-2024 09:36 | 429616 | ||
| 41008_TS_DEWT_012007.nc | 26-Oct-2024 09:36 | 429596 | ||
| 41008_TS_DEWT_012008.nc | 26-Oct-2024 09:36 | 429609 | ||
| 41008_TS_DEWT_012009.nc | 26-Oct-2024 09:37 | 429616 | ||
| 41008_TS_DEWT_012010.nc | 26-Oct-2024 09:37 | 450439 | ||
| 41008_TS_DEWT_012011.nc | 26-Oct-2024 09:37 | 450862 | ||
| 41008_TS_DEWT_012012.nc | 26-Oct-2024 09:37 | 450021 | ||
| 41008_TS_DEWT_012013.nc | 26-Oct-2024 09:37 | 429617 | ||
| 41008_TS_DEWT_012014.nc | 26-Oct-2024 09:37 | 450400 | ||
| 41008_TS_DEWT_012015.nc | 26-Oct-2024 09:37 | 449977 | ||
| 41008_TS_DEWT_012016.nc | 26-Oct-2024 09:37 | 429837 | ||
| 41008_TS_DEWT_012017.nc | 26-Oct-2024 09:37 | 450940 | ||
| 41008_TS_DEWT_012018.nc | 26-Oct-2024 09:37 | 451285 | ||
| 41008_TS_DEWT_012019.nc | 26-Oct-2024 09:37 | 429829 | ||
| 41008_TS_DEWT_012020.nc | 26-Oct-2024 09:37 | 429811 | ||
| 41008_TS_DEWT_012021.nc | 26-Oct-2024 09:37 | 437452 | ||
| 41008_TS_DEWT_012022.nc | 26-Oct-2024 09:37 | 450952 | ||
| 41008_TS_DEWT_012023.nc | 26-Oct-2024 09:37 | 450212 | ||
| 41008_TS_DEWT_012024.nc | 26-Oct-2024 09:37 | 450131 | ||
| 41008_TS_DEWT_012025.nc | 07-Feb-2025 12:23 | 451809 | ||
| 41008_TS_DEWT_012026.nc | 02-Feb-2026 13:51 | 429834 | ||
| 41008_TS_DEWT_021989.nc | 26-Oct-2024 09:38 | 451260 | ||
| 41008_TS_DEWT_021990.nc | 26-Oct-2024 09:38 | 451156 | ||
| 41008_TS_DEWT_021991.nc | 26-Oct-2024 09:38 | 450992 | ||
| 41008_TS_DEWT_021992.nc | 26-Oct-2024 09:38 | 450661 | ||
| 41008_TS_DEWT_021998.nc | 26-Oct-2024 09:38 | 450605 | ||
| 41008_TS_DEWT_021999.nc | 26-Oct-2024 09:38 | 429834 | ||
| 41008_TS_DEWT_022000.nc | 26-Oct-2024 09:38 | 429834 | ||
| 41008_TS_DEWT_022001.nc | 26-Oct-2024 09:38 | 1005733 | ||
| 41008_TS_DEWT_022002.nc | 26-Oct-2024 09:38 | 4733665 | ||
| 41008_TS_DEWT_022003.nc | 26-Oct-2024 09:38 | 3290971 | ||
| 41008_TS_DEWT_022004.nc | 26-Oct-2024 09:38 | 428616 | ||
| 41008_TS_DEWT_022005.nc | 26-Oct-2024 09:38 | 428616 | ||
| 41008_TS_DEWT_022006.nc | 26-Oct-2024 09:38 | 428616 | ||
| 41008_TS_DEWT_022007.nc | 26-Oct-2024 09:38 | 428947 | ||
| 41008_TS_DEWT_022008.nc | 26-Oct-2024 09:38 | 428615 | ||
| 41008_TS_DEWT_022009.nc | 26-Oct-2024 09:39 | 428613 | ||
| 41008_TS_DEWT_022010.nc | 26-Oct-2024 09:39 | 448405 | ||
| 41008_TS_DEWT_022011.nc | 26-Oct-2024 09:39 | 447028 | ||
| 41008_TS_DEWT_022012.nc | 26-Oct-2024 09:39 | 447022 | ||
| 41008_TS_DEWT_022013.nc | 26-Oct-2024 09:39 | 428612 | ||
| 41008_TS_DEWT_022014.nc | 26-Oct-2024 09:39 | 448583 | ||
| 41008_TS_DEWT_022015.nc | 26-Oct-2024 09:39 | 446813 | ||
| 41008_TS_DEWT_022016.nc | 26-Oct-2024 09:39 | 428809 | ||
| 41008_TS_DEWT_022017.nc | 26-Oct-2024 09:39 | 447726 | ||
| 41008_TS_DEWT_022018.nc | 26-Oct-2024 09:39 | 448854 | ||
| 41008_TS_DEWT_022019.nc | 26-Oct-2024 09:39 | 428804 | ||
| 41008_TS_DEWT_022020.nc | 26-Oct-2024 09:39 | 428805 | ||
| 41008_TS_DEWT_022021.nc | 26-Oct-2024 09:39 | 446675 | ||
| 41008_TS_DEWT_022022.nc | 26-Oct-2024 09:39 | 447771 | ||
| 41008_TS_DEWT_022023.nc | 26-Oct-2024 09:40 | 448108 | ||
| 41008_TS_DEWT_022024.nc | 16-Sep-2024 16:51 | 448493 | ||
| 41008_TS_DEWT_022025.nc | 28-Feb-2025 09:17 | 448327 | ||
| 41008_TS_DEWT_022026.nc | 01-Mar-2026 12:53 | 429156 | ||
| 41008_TS_DEWT_031988.nc | 26-Oct-2024 09:40 | 446629 | ||
| 41008_TS_DEWT_031989.nc | 26-Oct-2024 09:40 | 447522 | ||
| 41008_TS_DEWT_031990.nc | 26-Oct-2024 09:40 | 447505 | ||
| 41008_TS_DEWT_031991.nc | 26-Oct-2024 09:40 | 448800 | ||
| 41008_TS_DEWT_031992.nc | 26-Oct-2024 09:40 | 447958 | ||
| 41008_TS_DEWT_031998.nc | 26-Oct-2024 09:40 | 428804 | ||
| 41008_TS_DEWT_031999.nc | 26-Oct-2024 09:40 | 428803 | ||
| 41008_TS_DEWT_032000.nc | 26-Oct-2024 09:40 | 425362 | ||
| 41008_TS_DEWT_032001.nc | 26-Oct-2024 09:40 | 2802522 | ||
| 41008_TS_DEWT_032002.nc | 26-Oct-2024 09:40 | 5078968 | ||
| 41008_TS_DEWT_032003.nc | 26-Oct-2024 09:40 | 424445 | ||
| 41008_TS_DEWT_032004.nc | 26-Oct-2024 09:40 | 429609 | ||
| 41008_TS_DEWT_032005.nc | 26-Oct-2024 09:40 | 428025 | ||
| 41008_TS_DEWT_032006.nc | 26-Oct-2024 09:40 | 429622 | ||
| 41008_TS_DEWT_032007.nc | 26-Oct-2024 09:40 | 429599 | ||
| 41008_TS_DEWT_032008.nc | 26-Oct-2024 09:41 | 429610 | ||
| 41008_TS_DEWT_032009.nc | 26-Oct-2024 09:41 | 429611 | ||
| 41008_TS_DEWT_032010.nc | 26-Oct-2024 09:41 | 450232 | ||
| 41008_TS_DEWT_032011.nc | 26-Oct-2024 09:41 | 450063 | ||
| 41008_TS_DEWT_032012.nc | 26-Oct-2024 09:41 | 450761 | ||
| 41008_TS_DEWT_032013.nc | 26-Oct-2024 09:41 | 438137 | ||
| 41008_TS_DEWT_032014.nc | 26-Oct-2024 09:41 | 445376 | ||
| 41008_TS_DEWT_032015.nc | 26-Oct-2024 09:41 | 450842 | ||
| 41008_TS_DEWT_032016.nc | 26-Oct-2024 09:41 | 429832 | ||
| 41008_TS_DEWT_032017.nc | 26-Oct-2024 09:41 | 449700 | ||
| 41008_TS_DEWT_032018.nc | 26-Oct-2024 09:41 | 449730 | ||
| 41008_TS_DEWT_032019.nc | 26-Oct-2024 09:41 | 429836 | ||
| 41008_TS_DEWT_032020.nc | 26-Oct-2024 09:41 | 429833 | ||
| 41008_TS_DEWT_032021.nc | 26-Oct-2024 09:41 | 449737 | ||
| 41008_TS_DEWT_032022.nc | 26-Oct-2024 09:42 | 449517 | ||
| 41008_TS_DEWT_032023.nc | 26-Oct-2024 09:42 | 450984 | ||
| 41008_TS_DEWT_032025.nc | 02-Apr-2025 07:40 | 451042 | ||
| 41008_TS_DEWT_032026.nc | 21-Mar-2026 16:56 | 450894 | ||
| 41008_TS_DEWT_041988.nc | 26-Oct-2024 09:42 | 429831 | ||
| 41008_TS_DEWT_041989.nc | 26-Oct-2024 09:42 | 451578 | ||
| 41008_TS_DEWT_041990.nc | 26-Oct-2024 09:42 | 451735 | ||
| 41008_TS_DEWT_041991.nc | 26-Oct-2024 09:42 | 450900 | ||
| 41008_TS_DEWT_041992.nc | 26-Oct-2024 09:42 | 449506 | ||
| 41008_TS_DEWT_041998.nc | 26-Oct-2024 09:42 | 443748 | ||
| 41008_TS_DEWT_041999.nc | 26-Oct-2024 09:42 | 429817 | ||
| 41008_TS_DEWT_042000.nc | 26-Oct-2024 09:42 | 429837 | ||
| 41008_TS_DEWT_042001.nc | 26-Oct-2024 09:42 | 3596641 | ||
| 41008_TS_DEWT_042002.nc | 26-Oct-2024 09:42 | 3310980 | ||
| 41008_TS_DEWT_042003.nc | 26-Oct-2024 09:43 | 429291 | ||
| 41008_TS_DEWT_042004.nc | 26-Oct-2024 09:43 | 429287 | ||
| 41008_TS_DEWT_042005.nc | 26-Oct-2024 09:43 | 424540 | ||
| 41008_TS_DEWT_042006.nc | 26-Oct-2024 09:43 | 429272 | ||
| 41008_TS_DEWT_042007.nc | 26-Oct-2024 09:43 | 424225 | ||
| 41008_TS_DEWT_042008.nc | 26-Oct-2024 09:43 | 429294 | ||
| 41008_TS_DEWT_042009.nc | 26-Oct-2024 09:43 | 429289 | ||
| 41008_TS_DEWT_042010.nc | 26-Oct-2024 09:43 | 449434 | ||
| 41008_TS_DEWT_042011.nc | 26-Oct-2024 09:43 | 449487 | ||
| 41008_TS_DEWT_042012.nc | 26-Oct-2024 09:43 | 449615 | ||
| 41008_TS_DEWT_042013.nc | 26-Oct-2024 09:43 | 449278 | ||
| 41008_TS_DEWT_042014.nc | 26-Oct-2024 09:43 | 447268 | ||
| 41008_TS_DEWT_042015.nc | 26-Oct-2024 09:43 | 450497 | ||
| 41008_TS_DEWT_042016.nc | 26-Oct-2024 09:43 | 429495 | ||
| 41008_TS_DEWT_042017.nc | 26-Oct-2024 09:43 | 450266 | ||
| 41008_TS_DEWT_042018.nc | 26-Oct-2024 09:43 | 449284 | ||
| 41008_TS_DEWT_042019.nc | 26-Oct-2024 09:43 | 429492 | ||
| 41008_TS_DEWT_042020.nc | 26-Oct-2024 09:43 | 429490 | ||
| 41008_TS_DEWT_042021.nc | 26-Oct-2024 09:43 | 449983 | ||
| 41008_TS_DEWT_042022.nc | 26-Oct-2024 09:44 | 449913 | ||
| 41008_TS_DEWT_042023.nc | 26-Oct-2024 09:44 | 449356 | ||
| 41008_TS_DEWT_042025.nc | 01-May-2025 04:51 | 449633 | ||
| 41008_TS_DEWT_051988.nc | 26-Oct-2024 09:44 | 450236 | ||
| 41008_TS_DEWT_051989.nc | 26-Oct-2024 09:44 | 419235 | ||
| 41008_TS_DEWT_051990.nc | 26-Oct-2024 09:44 | 451135 | ||
| 41008_TS_DEWT_051991.nc | 26-Oct-2024 09:44 | 448948 | ||
| 41008_TS_DEWT_051997.nc | 26-Oct-2024 09:44 | 449026 | ||
| 41008_TS_DEWT_051998.nc | 26-Oct-2024 09:44 | 448362 | ||
| 41008_TS_DEWT_051999.nc | 26-Oct-2024 09:44 | 450192 | ||
| 41008_TS_DEWT_052000.nc | 26-Oct-2024 09:44 | 429495 | ||
| 41008_TS_DEWT_052001.nc | 26-Oct-2024 09:44 | 429491 | ||
| 41008_TS_DEWT_052002.nc | 26-Oct-2024 09:44 | 4816280 | ||
| 41008_TS_DEWT_052003.nc | 26-Oct-2024 09:44 | 429611 | ||
| 41008_TS_DEWT_052004.nc | 26-Oct-2024 09:44 | 429621 | ||
| 41008_TS_DEWT_052005.nc | 26-Oct-2024 09:45 | 429603 | ||
| 41008_TS_DEWT_052006.nc | 26-Oct-2024 09:45 | 429610 | ||
| 41008_TS_DEWT_052007.nc | 26-Oct-2024 09:45 | 425332 | ||
| 41008_TS_DEWT_052008.nc | 26-Oct-2024 09:45 | 429611 | ||
| 41008_TS_DEWT_052009.nc | 26-Oct-2024 09:45 | 442923 | ||
| 41008_TS_DEWT_052010.nc | 26-Oct-2024 09:45 | 451304 | ||
| 41008_TS_DEWT_052011.nc | 26-Oct-2024 09:45 | 450016 | ||
| 41008_TS_DEWT_052012.nc | 26-Oct-2024 09:45 | 450940 | ||
| 41008_TS_DEWT_052013.nc | 26-Oct-2024 09:45 | 451498 | ||
| 41008_TS_DEWT_052014.nc | 26-Oct-2024 09:45 | 450915 | ||
| 41008_TS_DEWT_052015.nc | 26-Oct-2024 09:45 | 451372 | ||
| 41008_TS_DEWT_052016.nc | 26-Oct-2024 09:45 | 429834 | ||
| 41008_TS_DEWT_052017.nc | 26-Oct-2024 09:45 | 450294 | ||
| 41008_TS_DEWT_052018.nc | 26-Oct-2024 09:46 | 450520 | ||
| 41008_TS_DEWT_052019.nc | 26-Oct-2024 09:46 | 425427 | ||
| 41008_TS_DEWT_052020.nc | 26-Oct-2024 09:46 | 429839 | ||
| 41008_TS_DEWT_052021.nc | 26-Oct-2024 09:46 | 449468 | ||
| 41008_TS_DEWT_052022.nc | 26-Oct-2024 09:46 | 449804 | ||
| 41008_TS_DEWT_052023.nc | 26-Oct-2024 09:46 | 449811 | ||
| 41008_TS_DEWT_052025.nc | 01-Jun-2025 05:04 | 450580 | ||
| 41008_TS_DEWT_061988.nc | 26-Oct-2024 09:46 | 450905 | ||
| 41008_TS_DEWT_061989.nc | 26-Oct-2024 09:46 | 427059 | ||
| 41008_TS_DEWT_061990.nc | 26-Oct-2024 09:46 | 449729 | ||
| 41008_TS_DEWT_061991.nc | 26-Oct-2024 09:46 | 436839 | ||
| 41008_TS_DEWT_061997.nc | 26-Oct-2024 09:46 | 450842 | ||
| 41008_TS_DEWT_061998.nc | 26-Oct-2024 09:46 | 450035 | ||
| 41008_TS_DEWT_061999.nc | 26-Oct-2024 09:46 | 451653 | ||
| 41008_TS_DEWT_062000.nc | 26-Oct-2024 09:46 | 429834 | ||
| 41008_TS_DEWT_062001.nc | 26-Oct-2024 09:46 | 429834 | ||
| 41008_TS_DEWT_062002.nc | 26-Oct-2024 09:46 | 5444259 | ||
| 41008_TS_DEWT_062003.nc | 26-Oct-2024 09:47 | 429288 | ||
| 41008_TS_DEWT_062004.nc | 26-Oct-2024 09:47 | 429261 | ||
| 41008_TS_DEWT_062005.nc | 26-Oct-2024 09:47 | 429288 | ||
| 41008_TS_DEWT_062006.nc | 26-Oct-2024 09:47 | 429290 | ||
| 41008_TS_DEWT_062007.nc | 26-Oct-2024 09:47 | 429296 | ||
| 41008_TS_DEWT_062008.nc | 26-Oct-2024 09:47 | 429291 | ||
| 41008_TS_DEWT_062010.nc | 26-Oct-2024 09:47 | 449121 | ||
| 41008_TS_DEWT_062011.nc | 26-Oct-2024 09:47 | 448754 | ||
| 41008_TS_DEWT_062012.nc | 26-Oct-2024 09:47 | 449182 | ||
| 41008_TS_DEWT_062013.nc | 26-Oct-2024 09:47 | 444704 | ||
| 41008_TS_DEWT_062014.nc | 26-Oct-2024 09:47 | 449010 | ||
| 41008_TS_DEWT_062015.nc | 26-Oct-2024 09:47 | 448928 | ||
| 41008_TS_DEWT_062016.nc | 26-Oct-2024 09:47 | 448466 | ||
| 41008_TS_DEWT_062017.nc | 26-Oct-2024 09:47 | 429492 | ||
| 41008_TS_DEWT_062018.nc | 26-Oct-2024 09:47 | 449335 | ||
| 41008_TS_DEWT_062019.nc | 26-Oct-2024 09:48 | 432992 | ||
| 41008_TS_DEWT_062020.nc | 26-Oct-2024 09:48 | 429488 | ||
| 41008_TS_DEWT_062021.nc | 26-Oct-2024 09:48 | 449143 | ||
| 41008_TS_DEWT_062022.nc | 26-Oct-2024 09:48 | 449234 | ||
| 41008_TS_DEWT_062023.nc | 26-Oct-2024 09:48 | 449129 | ||
| 41008_TS_DEWT_062025.nc | 01-Jul-2025 05:08 | 450081 | ||
| 41008_TS_DEWT_071988.nc | 26-Oct-2024 09:48 | 450097 | ||
| 41008_TS_DEWT_071989.nc | 26-Oct-2024 09:48 | 450712 | ||
| 41008_TS_DEWT_071990.nc | 26-Oct-2024 09:48 | 450204 | ||
| 41008_TS_DEWT_071991.nc | 26-Oct-2024 09:48 | 432288 | ||
| 41008_TS_DEWT_071997.nc | 26-Oct-2024 09:48 | 447638 | ||
| 41008_TS_DEWT_071998.nc | 26-Oct-2024 09:48 | 449396 | ||
| 41008_TS_DEWT_071999.nc | 26-Oct-2024 09:48 | 449264 | ||
| 41008_TS_DEWT_072000.nc | 26-Oct-2024 09:48 | 429494 | ||
| 41008_TS_DEWT_072001.nc | 26-Oct-2024 09:48 | 658351 | ||
| 41008_TS_DEWT_072002.nc | 26-Oct-2024 09:49 | 5224307 | ||
| 41008_TS_DEWT_072003.nc | 26-Oct-2024 09:49 | 429616 | ||
| 41008_TS_DEWT_072004.nc | 26-Oct-2024 09:49 | 429617 | ||
| 41008_TS_DEWT_072005.nc | 26-Oct-2024 09:49 | 429593 | ||
| 41008_TS_DEWT_072006.nc | 26-Oct-2024 09:49 | 429612 | ||
| 41008_TS_DEWT_072007.nc | 26-Oct-2024 09:49 | 429611 | ||
| 41008_TS_DEWT_072008.nc | 26-Oct-2024 09:49 | 429622 | ||
| 41008_TS_DEWT_072009.nc | 26-Oct-2024 09:49 | 450122 | ||
| 41008_TS_DEWT_072010.nc | 26-Oct-2024 09:49 | 451177 | ||
| 41008_TS_DEWT_072011.nc | 26-Oct-2024 09:49 | 451237 | ||
| 41008_TS_DEWT_072012.nc | 26-Oct-2024 09:49 | 429623 | ||
| 41008_TS_DEWT_072013.nc | 26-Oct-2024 09:49 | 449180 | ||
| 41008_TS_DEWT_072014.nc | 26-Oct-2024 09:49 | 450706 | ||
| 41008_TS_DEWT_072015.nc | 26-Oct-2024 09:49 | 448879 | ||
| 41008_TS_DEWT_072016.nc | 26-Oct-2024 09:49 | 438827 | ||
| 41008_TS_DEWT_072017.nc | 26-Oct-2024 09:50 | 450043 | ||
| 41008_TS_DEWT_072018.nc | 26-Oct-2024 09:50 | 429830 | ||
| 41008_TS_DEWT_072019.nc | 26-Oct-2024 09:50 | 429929 | ||
| 41008_TS_DEWT_072020.nc | 26-Oct-2024 09:50 | 429835 | ||
| 41008_TS_DEWT_072021.nc | 26-Oct-2024 09:50 | 450640 | ||
| 41008_TS_DEWT_072022.nc | 26-Oct-2024 09:50 | 451438 | ||
| 41008_TS_DEWT_072023.nc | 26-Oct-2024 09:50 | 450215 | ||
| 41008_TS_DEWT_072025.nc | 01-Aug-2025 05:18 | 451088 | ||
| 41008_TS_DEWT_081988.nc | 26-Oct-2024 09:50 | 450637 | ||
| 41008_TS_DEWT_081989.nc | 26-Oct-2024 09:50 | 449065 | ||
| 41008_TS_DEWT_081990.nc | 26-Oct-2024 09:50 | 450813 | ||
| 41008_TS_DEWT_081991.nc | 26-Oct-2024 09:50 | 449925 | ||
| 41008_TS_DEWT_081997.nc | 26-Oct-2024 09:50 | 450038 | ||
| 41008_TS_DEWT_081998.nc | 26-Oct-2024 09:50 | 447606 | ||
| 41008_TS_DEWT_081999.nc | 26-Oct-2024 09:50 | 450098 | ||
| 41008_TS_DEWT_082000.nc | 26-Oct-2024 09:51 | 429836 | ||
| 41008_TS_DEWT_082001.nc | 26-Oct-2024 09:51 | 1266137 | ||
| 41008_TS_DEWT_082002.nc | 26-Oct-2024 09:51 | 4494892 | ||
| 41008_TS_DEWT_082003.nc | 26-Oct-2024 09:51 | 429612 | ||
| 41008_TS_DEWT_082004.nc | 26-Oct-2024 09:51 | 429616 | ||
| 41008_TS_DEWT_082005.nc | 26-Oct-2024 09:51 | 429617 | ||
| 41008_TS_DEWT_082006.nc | 26-Oct-2024 09:51 | 429570 | ||
| 41008_TS_DEWT_082007.nc | 26-Oct-2024 09:51 | 429614 | ||
| 41008_TS_DEWT_082008.nc | 26-Oct-2024 09:51 | 429611 | ||
| 41008_TS_DEWT_082009.nc | 26-Oct-2024 09:51 | 450557 | ||
| 41008_TS_DEWT_082010.nc | 26-Oct-2024 09:51 | 429616 | ||
| 41008_TS_DEWT_082011.nc | 26-Oct-2024 09:51 | 450186 | ||
| 41008_TS_DEWT_082012.nc | 26-Oct-2024 09:51 | 429618 | ||
| 41008_TS_DEWT_082013.nc | 26-Oct-2024 09:51 | 450854 | ||
| 41008_TS_DEWT_082014.nc | 26-Oct-2024 09:51 | 449528 | ||
| 41008_TS_DEWT_082015.nc | 26-Oct-2024 09:51 | 449396 | ||
| 41008_TS_DEWT_082016.nc | 26-Oct-2024 09:52 | 451247 | ||
| 41008_TS_DEWT_082017.nc | 26-Oct-2024 09:52 | 450459 | ||
| 41008_TS_DEWT_082018.nc | 26-Oct-2024 09:52 | 429835 | ||
| 41008_TS_DEWT_082019.nc | 26-Oct-2024 09:52 | 431150 | ||
| 41008_TS_DEWT_082020.nc | 26-Oct-2024 09:52 | 429833 | ||
| 41008_TS_DEWT_082021.nc | 26-Oct-2024 09:52 | 450650 | ||
| 41008_TS_DEWT_082022.nc | 26-Oct-2024 09:52 | 451171 | ||
| 41008_TS_DEWT_082023.nc | 26-Oct-2024 09:52 | 450972 | ||
| 41008_TS_DEWT_082025.nc | 01-Sep-2025 05:06 | 451034 | ||
| 41008_TS_DEWT_091988.nc | 26-Oct-2024 09:52 | 450499 | ||
| 41008_TS_DEWT_091989.nc | 26-Oct-2024 09:52 | 450758 | ||
| 41008_TS_DEWT_091990.nc | 26-Oct-2024 09:52 | 450205 | ||
| 41008_TS_DEWT_091991.nc | 26-Oct-2024 09:52 | 451448 | ||
| 41008_TS_DEWT_091997.nc | 26-Oct-2024 09:52 | 449714 | ||
| 41008_TS_DEWT_091998.nc | 26-Oct-2024 09:53 | 450899 | ||
| 41008_TS_DEWT_091999.nc | 26-Oct-2024 09:53 | 431033 | ||
| 41008_TS_DEWT_092000.nc | 26-Oct-2024 09:53 | 429833 | ||
| 41008_TS_DEWT_092001.nc | 26-Oct-2024 09:53 | 1012386 | ||
| 41008_TS_DEWT_092002.nc | 26-Oct-2024 09:53 | 5409456 | ||
| 41008_TS_DEWT_092003.nc | 26-Oct-2024 09:53 | 429293 | ||
| 41008_TS_DEWT_092004.nc | 26-Oct-2024 09:53 | 429263 | ||
| 41008_TS_DEWT_092005.nc | 26-Oct-2024 09:53 | 429286 | ||
| 41008_TS_DEWT_092006.nc | 26-Oct-2024 09:53 | 429287 | ||
| 41008_TS_DEWT_092007.nc | 26-Oct-2024 09:53 | 429287 | ||
| 41008_TS_DEWT_092008.nc | 26-Oct-2024 09:53 | 429292 | ||
| 41008_TS_DEWT_092009.nc | 26-Oct-2024 09:53 | 449813 | ||
| 41008_TS_DEWT_092010.nc | 26-Oct-2024 09:53 | 429293 | ||
| 41008_TS_DEWT_092011.nc | 26-Oct-2024 09:53 | 448175 | ||
| 41008_TS_DEWT_092012.nc | 26-Oct-2024 09:53 | 429283 | ||
| 41008_TS_DEWT_092013.nc | 26-Oct-2024 09:53 | 449404 | ||
| 41008_TS_DEWT_092014.nc | 26-Oct-2024 09:53 | 448918 | ||
| 41008_TS_DEWT_092015.nc | 26-Oct-2024 09:54 | 449891 | ||
| 41008_TS_DEWT_092016.nc | 26-Oct-2024 09:54 | 449767 | ||
| 41008_TS_DEWT_092017.nc | 26-Oct-2024 09:54 | 449705 | ||
| 41008_TS_DEWT_092018.nc | 26-Oct-2024 09:54 | 429493 | ||
| 41008_TS_DEWT_092019.nc | 26-Oct-2024 09:54 | 429491 | ||
| 41008_TS_DEWT_092020.nc | 26-Oct-2024 09:54 | 429489 | ||
| 41008_TS_DEWT_092021.nc | 26-Oct-2024 09:54 | 449223 | ||
| 41008_TS_DEWT_092022.nc | 26-Oct-2024 09:54 | 448872 | ||
| 41008_TS_DEWT_092023.nc | 26-Oct-2024 09:54 | 449134 | ||
| 41008_TS_DEWT_092025.nc | 01-Oct-2025 04:51 | 449501 | ||
| 41008_TS_DEWT_101988.nc | 26-Oct-2024 09:54 | 449500 | ||
| 41008_TS_DEWT_101989.nc | 26-Oct-2024 09:54 | 449895 | ||
| 41008_TS_DEWT_101990.nc | 26-Oct-2024 09:54 | 448547 | ||
| 41008_TS_DEWT_101991.nc | 26-Oct-2024 09:54 | 449270 | ||
| 41008_TS_DEWT_101997.nc | 26-Oct-2024 09:54 | 448895 | ||
| 41008_TS_DEWT_101998.nc | 26-Oct-2024 09:54 | 448868 | ||
| 41008_TS_DEWT_101999.nc | 26-Oct-2024 09:54 | 429493 | ||
| 41008_TS_DEWT_102000.nc | 26-Oct-2024 09:54 | 429490 | ||
| 41008_TS_DEWT_102001.nc | 26-Oct-2024 09:54 | 1116286 | ||
| 41008_TS_DEWT_102002.nc | 26-Oct-2024 09:55 | 4650322 | ||
| 41008_TS_DEWT_102003.nc | 26-Oct-2024 09:55 | 429617 | ||
| 41008_TS_DEWT_102004.nc | 26-Oct-2024 09:55 | 425251 | ||
| 41008_TS_DEWT_102005.nc | 26-Oct-2024 09:55 | 429611 | ||
| 41008_TS_DEWT_102006.nc | 26-Oct-2024 09:55 | 429612 | ||
| 41008_TS_DEWT_102007.nc | 26-Oct-2024 09:55 | 429611 | ||
| 41008_TS_DEWT_102008.nc | 26-Oct-2024 09:55 | 429615 | ||
| 41008_TS_DEWT_102009.nc | 26-Oct-2024 09:55 | 450397 | ||
| 41008_TS_DEWT_102010.nc | 26-Oct-2024 09:55 | 429611 | ||
| 41008_TS_DEWT_102011.nc | 26-Oct-2024 09:55 | 449431 | ||
| 41008_TS_DEWT_102012.nc | 26-Oct-2024 09:55 | 429624 | ||
| 41008_TS_DEWT_102013.nc | 26-Oct-2024 09:55 | 449382 | ||
| 41008_TS_DEWT_102014.nc | 26-Oct-2024 09:55 | 450229 | ||
| 41008_TS_DEWT_102015.nc | 26-Oct-2024 09:55 | 450808 | ||
| 41008_TS_DEWT_102016.nc | 26-Oct-2024 09:56 | 450751 | ||
| 41008_TS_DEWT_102017.nc | 26-Oct-2024 09:56 | 451566 | ||
| 41008_TS_DEWT_102018.nc | 26-Oct-2024 09:56 | 429836 | ||
| 41008_TS_DEWT_102019.nc | 26-Oct-2024 09:56 | 429835 | ||
| 41008_TS_DEWT_102020.nc | 26-Oct-2024 09:56 | 429835 | ||
| 41008_TS_DEWT_102021.nc | 26-Oct-2024 09:56 | 450065 | ||
| 41008_TS_DEWT_102022.nc | 26-Oct-2024 09:56 | 450962 | ||
| 41008_TS_DEWT_102023.nc | 26-Oct-2024 09:56 | 450372 | ||
| 41008_TS_DEWT_102024.nc | 12-Jan-2025 20:59 | 451031 | ||
| 41008_TS_DEWT_102025.nc | 01-Nov-2025 08:00 | 451698 | ||
| 41008_TS_DEWT_111988.nc | 26-Oct-2024 09:56 | 451081 | ||
| 41008_TS_DEWT_111989.nc | 26-Oct-2024 09:56 | 450215 | ||
| 41008_TS_DEWT_111990.nc | 26-Oct-2024 09:56 | 450035 | ||
| 41008_TS_DEWT_111991.nc | 26-Oct-2024 09:56 | 451017 | ||
| 41008_TS_DEWT_111997.nc | 26-Oct-2024 09:56 | 450627 | ||
| 41008_TS_DEWT_111998.nc | 26-Oct-2024 09:56 | 429814 | ||
| 41008_TS_DEWT_111999.nc | 26-Oct-2024 09:56 | 429838 | ||
| 41008_TS_DEWT_112000.nc | 26-Oct-2024 09:57 | 1267763 | ||
| 41008_TS_DEWT_112001.nc | 26-Oct-2024 09:57 | 494030 | ||
| 41008_TS_DEWT_112002.nc | 26-Oct-2024 09:57 | 5649514 | ||
| 41008_TS_DEWT_112003.nc | 26-Oct-2024 09:57 | 429285 | ||
| 41008_TS_DEWT_112004.nc | 26-Oct-2024 09:57 | 420928 | ||
| 41008_TS_DEWT_112005.nc | 26-Oct-2024 09:57 | 429292 | ||
| 41008_TS_DEWT_112006.nc | 26-Oct-2024 09:57 | 429290 | ||
| 41008_TS_DEWT_112007.nc | 26-Oct-2024 09:57 | 429286 | ||
| 41008_TS_DEWT_112008.nc | 26-Oct-2024 09:57 | 429281 | ||
| 41008_TS_DEWT_112009.nc | 26-Oct-2024 09:57 | 448715 | ||
| 41008_TS_DEWT_112010.nc | 26-Oct-2024 09:57 | 429290 | ||
| 41008_TS_DEWT_112011.nc | 26-Oct-2024 09:57 | 449560 | ||
| 41008_TS_DEWT_112012.nc | 26-Oct-2024 09:57 | 429288 | ||
| 41008_TS_DEWT_112013.nc | 26-Oct-2024 09:57 | 448890 | ||
| 41008_TS_DEWT_112014.nc | 26-Oct-2024 09:57 | 449910 | ||
| 41008_TS_DEWT_112015.nc | 26-Oct-2024 09:57 | 449647 | ||
| 41008_TS_DEWT_112016.nc | 26-Oct-2024 09:57 | 449200 | ||
| 41008_TS_DEWT_112017.nc | 26-Oct-2024 09:57 | 450057 | ||
| 41008_TS_DEWT_112018.nc | 26-Oct-2024 09:57 | 429491 | ||
| 41008_TS_DEWT_112019.nc | 26-Oct-2024 09:58 | 429490 | ||
| 41008_TS_DEWT_112020.nc | 26-Oct-2024 09:58 | 429491 | ||
| 41008_TS_DEWT_112021.nc | 26-Oct-2024 09:58 | 449595 | ||
| 41008_TS_DEWT_112022.nc | 26-Oct-2024 09:58 | 449894 | ||
| 41008_TS_DEWT_112023.nc | 26-Oct-2024 09:58 | 449344 | ||
| 41008_TS_DEWT_112024.nc | 17-Jan-2025 15:18 | 449904 | ||
| 41008_TS_DEWT_112025.nc | 01-Dec-2025 10:03 | 445465 | ||
| 41008_TS_DEWT_121988.nc | 26-Oct-2024 09:58 | 450595 | ||
| 41008_TS_DEWT_121989.nc | 26-Oct-2024 09:58 | 448084 | ||
| 41008_TS_DEWT_121990.nc | 26-Oct-2024 09:58 | 449904 | ||
| 41008_TS_DEWT_121991.nc | 26-Oct-2024 09:58 | 448915 | ||
| 41008_TS_DEWT_121997.nc | 26-Oct-2024 09:58 | 448996 | ||
| 41008_TS_DEWT_121998.nc | 26-Oct-2024 09:58 | 429491 | ||
| 41008_TS_DEWT_121999.nc | 26-Oct-2024 09:58 | 429491 | ||
| 41008_TS_DEWT_122000.nc | 26-Oct-2024 09:58 | 1116173 | ||
| 41008_TS_DEWT_122001.nc | 26-Oct-2024 09:58 | 5839958 | ||
| 41008_TS_DEWT_122002.nc | 26-Oct-2024 09:58 | 5415413 | ||
| 41008_TS_DEWT_122003.nc | 26-Oct-2024 09:58 | 429621 | ||
| 41008_TS_DEWT_122004.nc | 26-Oct-2024 09:58 | 429431 | ||
| 41008_TS_DEWT_122005.nc | 26-Oct-2024 09:59 | 429611 | ||
| 41008_TS_DEWT_122006.nc | 26-Oct-2024 09:59 | 429617 | ||
| 41008_TS_DEWT_122007.nc | 26-Oct-2024 09:59 | 429618 | ||
| 41008_TS_DEWT_122008.nc | 26-Oct-2024 09:59 | 429621 | ||
| 41008_TS_DEWT_122009.nc | 26-Oct-2024 09:59 | 451865 | ||
| 41008_TS_DEWT_122010.nc | 26-Oct-2024 09:59 | 446640 | ||
| 41008_TS_DEWT_122011.nc | 26-Oct-2024 09:59 | 449853 | ||
| 41008_TS_DEWT_122012.nc | 26-Oct-2024 09:59 | 429617 | ||
| 41008_TS_DEWT_122013.nc | 26-Oct-2024 09:59 | 450919 | ||
| 41008_TS_DEWT_122014.nc | 26-Oct-2024 09:59 | 450910 | ||
| 41008_TS_DEWT_122015.nc | 26-Oct-2024 09:59 | 451617 | ||
| 41008_TS_DEWT_122016.nc | 26-Oct-2024 09:59 | 450602 | ||
| 41008_TS_DEWT_122017.nc | 26-Oct-2024 09:59 | 451547 | ||
| 41008_TS_DEWT_122018.nc | 26-Oct-2024 09:59 | 429835 | ||
| 41008_TS_DEWT_122019.nc | 26-Oct-2024 09:59 | 429836 | ||
| 41008_TS_DEWT_122020.nc | 26-Oct-2024 10:00 | 429838 | ||
| 41008_TS_DEWT_122021.nc | 26-Oct-2024 10:00 | 451093 | ||
| 41008_TS_DEWT_122022.nc | 26-Oct-2024 10:00 | 450296 | ||
| 41008_TS_DEWT_122023.nc | 26-Oct-2024 10:00 | 450403 | ||
| 41008_TS_DEWT_122024.nc | 22-Jan-2025 22:36 | 451506 | ||
| 41008_TS_DEWT_122025.nc | 01-Jan-2026 09:45 | 445764 | ||